Volver al catálogo

CBERS 1

ActivoCienciaSSO
NORAD 25940·PAYLOAD·🇧🇷 Brazil🇨🇳 China

Lanzado Oct 14, 1999 desde Taiyuan Satellite Launch Center

Loading…

Próximos Pases (próximas 24 horas)

TLE

ActualizadoSource: Space-Track

Época: Sep 14, 2026, 12:13 UTC

1 25940U 99057A   26257.50959593  .00000085  00000-0  44430-4 0  9999
2 25940  98.8506 269.5970 0006030  94.1908 265.9967 14.37032779410345

Sigue CBERS 1 en tiempo real con AllMySat

Download on the App Store